TimeMDT,TemperatureF,Dew PointF,Humidity,Sea Level PressureIn,VisibilityMPH,Wind Direction,Wind SpeedMPH,Gust SpeedMPH,PrecipitationIn,Events,Conditions,WindDirDegrees,DateUTC
12:53 AM,46.0,39.9,79,29.96,10.0,WNW,15.0,-,0.02,Rain,Light Rain,290,2012-11-02 06:53:00
1:53 AM,44.1,39.9,85,29.97,10.0,SW,9.2,-,0.01,,Mostly Cloudy,230,2012-11-02 07:53:00
2:53 AM,44.1,39.0,82,29.97,10.0,WSW,12.7,-,N/A,,Scattered Clouds,240,2012-11-02 08:53:00
3:53 AM,43.0,37.9,82,29.98,10.0,WSW,11.5,-,N/A,,Partly Cloudy,240,2012-11-02 09:53:00
4:53 AM,43.0,36.0,76,29.99,10.0,WSW,11.5,-,N/A,,Scattered Clouds,240,2012-11-02 10:53:00
5:53 AM,43.0,36.0,76,30.00,10.0,SW,9.2,-,N/A,,Mostly Cloudy,230,2012-11-02 11:53:00
6:53 AM,39.9,35.1,83,30.02,10.0,SW,11.5,-,N/A,,Mostly Cloudy,230,2012-11-02 12:53:00
7:53 AM,41.0,36.0,82,30.05,10.0,WSW,13.8,-,N/A,,Mostly Cloudy,240,2012-11-02 13:53:00
8:53 AM,41.0,35.1,79,30.08,10.0,SW,12.7,-,N/A,,Mostly Cloudy,230,2012-11-02 14:53:00
9:53 AM,43.0,36.0,76,30.08,10.0,SW,8.1,-,N/A,,Mostly Cloudy,220,2012-11-02 15:53:00
10:53 AM,46.0,37.9,73,30.09,10.0,SSW,9.2,-,N/A,,Scattered Clouds,210,2012-11-02 16:53:00
11:53 AM,54.0,36.0,51,30.08,10.0,NW,13.8,-,N/A,,Scattered Clouds,310,2012-11-02 17:53:00
12:53 PM,54.0,33.1,45,30.07,10.0,WNW,17.3,-,N/A,,Scattered Clouds,300,2012-11-02 18:53:00
1:53 PM,55.9,30.9,39,30.07,10.0,NW,15.0,-,N/A,,Scattered Clouds,320,2012-11-02 19:53:00
2:53 PM,55.0,33.1,43,30.07,10.0,North,9.2,-,N/A,,Mostly Cloudy,350,2012-11-02 20:53:00
3:53 PM,54.0,32.0,43,30.08,10.0,NW,6.9,-,N/A,,Mostly Cloudy,320,2012-11-02 21:53:00
4:53 PM,54.0,30.9,41,30.09,10.0,NW,6.9,-,N/A,,Mostly Cloudy,320,2012-11-02 22:53:00
5:53 PM,50.0,34.0,54,30.10,10.0,ESE,4.6,-,N/A,,Mostly Cloudy,120,2012-11-02 23:53:00
6:53 PM,48.9,34.0,56,30.13,10.0,ENE,4.6,-,N/A,,Mostly Cloudy,60,2012-11-03 00:53:00
7:53 PM,48.0,35.1,61,30.14,10.0,Calm,Calm,-,N/A,,Mostly Cloudy,0,2012-11-03 01:53:00
8:53 PM,46.0,35.1,66,30.15,10.0,ESE,9.2,-,N/A,,Mostly Cloudy,120,2012-11-03 02:53:00
9:53 PM,46.0,35.1,66,30.14,10.0,Calm,Calm,-,N/A,,Mostly Cloudy,0,2012-11-03 03:53:00
10:53 PM,42.1,33.1,70,30.15,10.0,South,8.1,-,N/A,,Scattered Clouds,190,2012-11-03 04:53:00
11:53 PM,39.9,33.1,77,30.13,10.0,SSW,9.2,-,N/A,,Partly Cloudy,210,2012-11-03 05:53:00